Regional Weather Roundup
Issued by NWS Mobile, AL

Home | Current Version | Previous Version | Text Only | Print | Product List | Glossary On
Versions: 1 2 3 4 5 6 7 8 9 10 11 12 13 14 15 16 17 18 19 20 21 22 23 24 25 26 27 28 29 30 31 32 33 34 35 36 37 38 39 40 41 42 43 44 45 46 47 48 49 50
774
ASUS44 KMOB 180512
RWRMOB
REGIONAL WEATHER ROUNDUP
NATIONAL WEATHER SERVICE MOBILE AL
1200 AM CDT FRI AUG 18 2017

NOTE: "FAIR" INDICATES FEW OR NO CLOUDS BELOW 12,000 FEET WITH NO
      SIGNIFICANT WEATHER AND/OR OBSTRUCTIONS TO VISIBILITY.

  * THESE STATIONS ARE PART OF THE UNIVERSITY OF SOUTH ALABAMA
    MESONET AND ARE NOT UNDER NWS OR FAA QUALITY CONTROL.

ALZ061>064-180600-
COASTAL ALABAMA

CITY           SKY/WX    TMP DP  RH WIND       PRES   REMARKS
MOBILE REG APT CLEAR     81  77  88 SW5       30.06R
BROOKLEY FIELD CLEAR     81  79  94 CALM      30.05S
USA CAMPUS*      N/A     77  75  94 CALM      30.05S
DOG RIVER*     NOT AVBL


CITY           SKY/WX    TMP DP  RH WIND       PRES   REMARKS
GULF SHORES    CLEAR     82  81  98 SW3       30.04S

$$

ALZ051>060-180600-
INTERIOR SOUTHWEST AND SOUTH CENTRAL ALABAMA

CITY           SKY/WX    TMP DP  RH WIND       PRES   REMARKS
GREENVILLE     CLEAR     76  72  87 CALM      30.02F
EVERGREEN      CLEAR     76  73  91 SW3       30.04R
ATMORE*        NOT AVBL
ANDALUSIA/OPP  CLEAR     79  75  87 CALM      30.03S
ANDALUSIA*       N/A     79  77  94 S5        30.04S
FLORALA APT    NOT AVBL
FLORALA*         N/A     75  75 100 CALM      30.73F

$$

FLZ001>006-180600-
WESTERN FLORIDA PANHANDLE

CITY           SKY/WX    TMP DP  RH WIND       PRES   REMARKS
PENSACOLA      CLEAR     84  77  79 W6        30.03S
NAS PENSACOLA  CLEAR     83  78  85 W3        30.03S
MILTON         CLEAR     79  77  94 W5        30.04S
WHTNG S FIELD  CLEAR     82  78  88 CALM      30.04S


CITY           SKY/WX    TMP DP  RH WIND       PRES   REMARKS
JAY*             N/A     79  77  94 SW5       30.04S
DUKE FIELD     CLEAR     80  76  86 SW3       30.03F
CRESTVIEW      CLEAR     77  75  93 CALM      30.05S
VALPARAISO     CLEAR     83  78  84 W3        30.02F
DESTIN         CLEAR     88  78  72 W5        30.03S HX 101

$$

MSZ076-079-180600-
INTERIOR SOUTHEAST MISSISSIPPI

CITY           SKY/WX    TMP DP  RH WIND       PRES   REMARKS
LEAKESVILLE*   NOT AVBL
AGRICOLA*        N/A     79  77  94 CALM      30.05S

$$

MARINE OBSERVATIONS

STATION/POSITION TIME  TEMP    WIND        PRES    WAVE
                       AIR SEA DIR/SP/G            HT/PER
                 (UTC) (F)     (DEG/KT/KT) (MB)    (FT/S)
PASCAGOULA       0448   86     220/  6/ 12 1017.3S
PETIT BOIS ISLND 0448   86     230/ 12/ 15 1018.1S
GRAND BAY        0330   87     210/ 11     1018.0R
KATRINA CUT      0430   86     240/ 12     1016.9F
CEDAR POINT      0430   87     230/ 13     1017.3S
E DAUPHIN ISLAND 0400   86     220/  9/ 12 1017.0R
MIDDLE BAY LIGHT 0400   86     220/ 14     1017.3
USCG MOBILE BAY  0448   82 86  200/  2/  3 1017.9S
STATE DOCKS      0448   84 86              1017.1S
MEAHER PARK      0430   86     220/  8     1017.6R
WEEKS BAY        0345   84                   N/A
FORT MORGAN      0448   86     240/ 13/ 15   N/A
12 S ORANGE BCH  0450   86 86  240/ 10/ 12 1017.0R   1/ 2
PENSACOLA BAY    0448   85 89              1017.3R
64 S DAUPHIN ISL 0450   87 88  210/  8/ 10 1017.9R   1/ 6
67 S FORT MORGAN 0430   85     200/ 10     1018.0R

$$

SELECTED LOCATIONS ACROSS THE REGION

CITY           SKY/WX    TMP DP  RH WIND       PRES   REMARKS
NEW ORLEANS    PTCLDY    80  77  90 SW3       30.06R
GULFPORT       CLEAR     84  78  82 VRB3      30.04S HX  95
PASCAGOULA AP  CLEAR     81  77  88 CALM      30.04S
PASCAGOULA*    NOT AVBL
HATTIESBURG    PTCLDY    81  76  84 SW3       30.06R
LAUREL         CLEAR     76  74  93 S6        30.06S
MERIDIAN       CLEAR     78  75  90 S3        30.03S
JACKSON        CLEAR     78  76  93 SW3       30.03S
MONTGOMERY     CLEAR     80  73  79 CALM      30.01F
TROY           CLEAR     74  74 100 CALM      30.03S
ASHFORD*         N/A     79  77  94 S5        30.04S
DOTHAN         CLEAR     78  76  93 SW5       30.06F
PANAMA CITY    PTCLDY    80  77  90 CALM      30.02S

$$





USA.gov is the U.S. government's official web portal to all federal, state and local government web resources and services.